#timestamp,LO_Frequency,Hit,StdDev 
1518166815.4,286047003.9,N
1518166835.2,286047002.2,N
1518166855.1,286047002.0,N
1518166856.0,286047002.0,N
1518166875.8,286047002.3,N
1518166895.7,286047000.4,N
1518166915.5,286047001.5,N
1518166935.3,286047003.2,N
1518166955.2,286047001.5,N
1518166975.0,286047002.7,N
1518166975.9,286047002.7,N
1518166995.8,286047000.5,N
1518167015.6,286046999.9,N
1518167035.4,286047001.0,N
1518167055.3,286047002.3,N
1518167075.1,286047001.6,N
1518167095.9,286047002.0,N
1518167115.7,286046999.7,N
1518167135.5,286046998.1,N
1518167155.4,286046997.0,N
1518167175.2,286046997.9,N
1518167195.0,286046995.3,N
1518167195.9,286046995.3,N
1518167215.8,286046998.9,N
1518167235.6,286047000.7,N
1518167255.5,286046998.8,N
1518167275.5,286046999.3,N
1518167295.3,286046998.4,N
1518167315.2,286046998.5,N
1518167335.9,286046998.9,N
1518167355.7,286047000.8,N
1518167375.6,286047001.0,N
1518167395.4,286046997.2,N
1518167415.2,286046995.3,N
1518167435.1,286046996.1,N
1518167436.0,286046996.1,N
1518167455.8,286046995.9,N
1518167475.7,286046995.3,N
1518167495.5,286046997.7,N
1518167515.3,286046999.3,N
1518167535.2,286047001.5,N
1518167555.0,286047001.7,N
1518167555.9,286047001.7,N
1518167575.8,286047004.2,N
1518167595.6,286047003.4,N
1518167615.4,286047003.3,N
1518167635.3,286047002.1,N
1518167655.1,286047001.6,N
1518167675.8,286047002.1,N
1518167695.7,286047000.1,N
1518167715.5,286047002.7,N
1518167735.4,286047001.1,N
1518167755.2,286046998.6,N
1518167775.0,286046996.7,N
1518167775.9,286046996.7,N
1518167795.8,286046998.6,N
1518167815.6,286047000.7,N
1518167835.4,286046996.5,N
1518167855.3,286046999.1,N
1518167875.1,286046997.3,N
1518167895.9,286046996.7,N
1518167915.7,286046999.5,N
1518167935.5,286046998.8,N
1518167955.4,286047000.2,N
1518167975.2,286047001.0,N
1518167995.0,286046998.6,N
1518167995.9,286046998.6,N
1518168015.8,286047000.1,N
1518168035.6,286046998.2,N
1518168055.5,286047001.2,N
1518168075.3,286047002.1,N
1518168095.1,286047003.1,N
1518168115.9,286047003.8,N
1518168135.7,286047002.7,N
1518168155.5,286047001.5,N
1518168175.4,286047000.2,N
1518168195.2,286047000.1,N
1518168215.1,286047000.9,N
1518168216.0,286047000.9,N
1518168235.8,286047002.8,N
1518168255.6,286047004.0,N
1518168275.5,286047001.9,N
1518168295.3,286047002.1,N
1518168315.2,286047002.6,N
1518168335.9,286047004.4,N
1518168355.7,286047004.2,N
1518168375.6,286047003.7,N
1518168395.4,286047003.9,N
1518168415.3,286047004.0,N
1518168435.1,286047002.5,N
1518168436.0,286047002.5,N
1518168455.8,286047001.3,N
1518168475.7,286047003.7,N
1518168495.5,286047004.0,N
1518168515.3,286047002.6,N
1518168535.2,286047003.2,N
1518168555.0,286047004.3,N
1518168555.9,286047004.3,N
1518168575.8,286047003.8,N
1518168595.6,286047002.5,N
1518168615.4,286047002.4,N
1518168635.3,286047000.1,N
1518168655.1,286047000.3,N
1518168675.9,286047004.4,Y
1518168695.7,286046998.3,P
1518168715.5,286046998.4,N
1518168735.4,286047000.5,N
1518168755.2,286046998.9,N
1518168775.1,286046999.1,N
1518168776.0,286046999.1,N
1518168795.8,286047001.0,N
1518168815.6,286047000.0,N
1518168835.5,286046999.9,N
1518168855.3,286046998.4,N
1518168875.1,286047000.9,N
1518168895.9,286046999.7,N
1518168915.7,286047000.7,N
1518168935.6,286047000.5,N
1518168955.4,286047001.9,N
1518168975.2,286047002.8,N
1518168995.1,286047004.3,Y
1518168996.0,286047004.3,P
1518169015.8,286047003.5,N
1518169035.7,286047001.6,N
1518169055.5,286047002.5,N
1518169075.3,286047000.6,N
1518169095.2,286047001.6,N
1518169115.0,286047000.5,N
1518169115.9,286047000.5,N
1518169135.8,286047000.1,N
1518169155.6,286047000.4,N
1518169175.4,286046998.4,N
1518169195.3,286046999.2,N
1518169215.1,286046999.6,N
1518169235.9,286046998.2,N
1518169255.7,286047000.0,N
1518169275.5,286047002.3,N
1518169295.4,286047002.7,N
1518169315.2,286047000.5,N
1518169335.1,286046999.4,N
1518169336.0,286046999.4,N
1518169355.8,286046998.0,N
1518169375.6,286046996.8,N
1518169395.5,286046999.1,N
1518169415.3,286046998.3,N
1518169435.1,286046996.5,N
1518169455.9,286046996.9,N
1518169475.7,286046998.3,N
1518169495.6,286046999.0,N
1518169515.4,286046996.8,N
1518169535.2,286046998.0,N
1518169555.1,286046995.3,N
1518169556.0,286046995.3,N
1518169575.8,286046997.8,N
1518169595.7,286046996.8,N
1518169615.5,286047000.5,N
1518169635.3,286047000.8,N
1518169655.2,286046996.9,N
1518169675.0,286046998.4,N
1518169675.9,286046998.4,N
1518169695.8,286046996.9,N
1518169715.6,286046997.1,N
1518169735.4,286046996.4,N
1518169755.3,286046996.7,N
1518169775.1,286046998.3,N
1518169795.8,286047001.1,N
1518169815.7,286047001.0,N
1518169835.5,286046998.3,N
1518169855.4,286046999.3,N
1518169875.2,286047000.0,N
1518169895.0,286046999.7,N
1518169895.9,286046999.7,N
1518169915.8,286046998.1,N
1518169935.6,286046996.7,N
1518169955.5,286046994.9,Y
1518169975.3,286046999.3,P
1518169995.1,286047000.3,N
1518170015.9,286046999.8,N
1518170035.7,286046999.8,N
1518170055.5,286047001.9,N
1518170075.4,286047001.6,N
1518170095.2,286047002.0,N
1518170115.1,286046999.8,N
1518170116.0,286046999.8,N
1518170135.8,286047002.4,N
1518170155.6,286047004.1,Y
1518170175.5,286047001.8,P
1518170195.3,286047003.7,P
1518170215.1,286047001.8,N
1518170235.9,286047001.0,N
1518170255.7,286046998.6,N
1518170275.6,286047000.2,N
1518170295.4,286047004.1,N
1518170315.2,286047000.3,N
1518170335.1,286046998.3,N
1518170336.0,286046998.3,N
1518170355.8,286047011.9,Y
1518170375.6,286046998.9,P
1518170395.5,286046998.8,N
